Regional Weather Roundup
Issued by NWS Cleveland, OH

Home | Current Version | Previous Version | Text Only | Print | Product List | Glossary Off
Versions: 1 2 3 4 5 6 7 8 9 10 11 12 13 14 15 16 17 18 19 20 21 22 23 24 25 26 27 28 29 30 31 32 33 34 35 36 37 38 39 40 41 42 43 44 45 46 47 48 49 50

000
ASUS41 KCLE 202202
RWRCLE
OHIO REGIONAL WEATHER ROUNDUP
NATIONAL WEATHER SERVICE CLEVELAND, OH
500 PM EST SAT JAN 20 2018

NOTE: "FAIR" INDICATES FEW OR NO CLOUDS BELOW 12,000 FEET WITH NO
SIGNIFICANT WEATHER AND/OR OBSTRUCTIONS TO VISIBILITY.

OHZ001>008-015>018-024>027-034-035-043-044-202300-
   NORTHWEST OHIO

CITY           SKY/WX    TMP DP  RH WIND       PRES   REMARKS
DEFIANCE       FAIR      39  31  72 SW7       30.01R
FINDLAY        FAIR      40  30  67 SW10      30.01R
TOLEDO EXPRESS FAIR      40  32  73 SW10      30.00R
TOLEDO EXEC    FAIR      39  31  72 SW8       30.01R
LIMA           FAIR      40  32  73 SW12      30.02S
$$

OHZ009>014-019>023-028>033-038-089-202300-
   NORTHEAST OHIO

CITY           SKY/WX    TMP DP  RH WIND       PRES   REMARKS
CLE-HOPKINS    FAIR      41  29  62 SW10G20   30.04R
CLE-LAKEFRONT  FAIR      41  28  60 SW13      30.01R
CUY CO. ARPT   MOCLDY    43  28  56 SW14G23   30.02R
LORAIN-ELYRIA  FAIR      38  25  59 SW7       30.02R
ASHTABULA      FAIR      41  27  57 SW9       30.02R
AKRON-CANTON   MOCLDY    41  27  57 SW14      30.02R
WOOSTER        FAIR      40  28  62 SW14      30.02R
MANSFIELD      FAIR      39  29  67 S13       30.02R
YOUNGSTOWN     MOCLDY    41  27  57 SW8       30.02R
$$

OHZ042-051>053-060>062-070>072-077>081-202300-
  SOUTHWEST OHIO

CITY           SKY/WX    TMP DP  RH WIND       PRES   REMARKS
CINC-COVINGTON NOT AVBL
CINC-LUNKEN    CLOUDY    46  34  62 S6        30.11R
HAMILTON       CLOUDY    48  33  56 S3        30.09S
DAYTON         CLOUDY    43  36  76 SW13      30.06R
WRIGHT-PAT AFB CLOUDY    44  31  62 SW9       30.06R
DAYTON GENERAL CLOUDY    46  33  60 SW8       30.06R
WILMINGTON     CLOUDY    41  33  73 SW10      30.07R
$$

OHZ036-037-039>041-045>050-054>059-063>069-073>076-082>088-202300-
  CENTRAL AND SOUTHEAST OHIO

CITY           SKY/WX    TMP DP  RH WIND       PRES   REMARKS
COLUMBUS       MOCLDY    44  29  55 SW10      30.07R
OSU AIRPORT    FAIR      42  30  62 SW9       30.07R
BOLTON FIELD   CLEAR     43  30  61 SW10      30.07R
RICKENBACK AFB NOT AVBL
NEWARK         FAIR      43  28  55 SW7       30.07R
MARION         FAIR      39  29  67 S12       30.05R
LANCASTER      FAIR      44  29  55 SW5       30.08R
ZANESVILLE     FAIR      46  28  49 W5        30.07R
NEW PHILLY     NOT AVBL
$$



USA.gov is the U.S. government's official web portal to all federal, state and local government web resources and services.